GFSSGP_con_mucape_306.txt.gz
CAPE
1007 861 781 1100 24 8 5 44 26 36 29 48 31 110 33 35 0 0 1 186 652 851 1201 1706 2164 1977 2060 2046 2060 2199 2302 2062 2347 2372 2107 2109 2139 2086 2195 2146 2169 2106 1974 2014 1847 1834 1818 1692 1542
805 1022 947 339 29 13 32 42 108 154 80 93 153 192 224 226 175 87 246 716 649 1300 1449 1595 2253 2049 2091 2072 2174 2280 2265 2320 2393 2391 2278 2350 2239 2134 2012 2003 1883 1954 1663 1352 1582 1591 1504 1395 1427
1638 1741 333 142 34 49 45 71 111 66 75 123 102 220 219 319 198 278 514 749 1046 1259 1384 1589 2044 1989 1773 1931 2107 2137 2262 2125 2029 2337 2156 2205 2240 2172 2127 2129 1788 1583 1471 1460 1509 1374 1228 1206 1227
93 129 329 56 29 49 76 68 78 57 84 133 153 228 258 212 289 539 652 866 918 1264 1568 1840 1922 1903 1873 1954 1358 903 1956 2222 2240 2172 2250 2374 2266 2369 1938 1484 1287 1066 1007 986 995 1107 1131 1060 1112
615 270 102 31 52 64 66 40 27 18 5 74 122 185 227 323 575 646 781 759 1104 1478 1565 1476 1800 1917 1299 1255 1699 1367 869 1805 1848 1841 2322 2488 2166 1855 1571 1361 1085 925 1094 1314 1306 1021 1046 1344 1327
53 269 38 40 58 49 35 28 27 27 75 81 110 156 370 476 589 661 716 1037 1333 1370 1518 1497 2025 1517 1222 1338 1995 1907 1025 1175 1590 1578 1885 2046 1934 1710 1432 1191 917 793 902 1273 1234 1140 1158 1242 1381
72 137 48 52 88 54 32 38 43 14 27 16 99 159 389 469 555 618 803 1120 1269 1424 1571 1539 1173 992 1657 1994 1983 2118 1714 1161 1288 1485 1582 1658 1580 1443 1299 1195 997 854 777 836 939 938 911 964 1114
153 246 45 55 109 102 73 86 42 39 22 40 125 89 203 411 562 617 803 1074 1297 1380 1363 1284 1110 1145 1502 1465 1249 1259 1360 1246 1287 1442 1501 1487 1464 1492 1371 1385 1408 1197 971 764 872 1007 1681 1556 1503
138 243 38 69 102 83 102 82 45 67 41 141 180 124 277 481 507 490 706 943 996 1124 1129 1260 1245 1037 1338 1356 1222 1566 1421 1437 1456 1436 1568 1662 971 1001 1157 1377 1500 1591 1401 866 1093 1763 2133 910 1237
283 227 22 88 81 65 102 81 63 50 138 145 262 345 466 441 373 402 496 568 636 723 818 1068 1134 867 932 1208 1325 1453 1705 1560 1516 1506 1657 1481 1478 1430 1453 1321 1949 2309 1961 2200 2357 2697 1902 563 439
597 384 146 65 67 47 53 70 56 67 114 97 237 372 384 358 272 250 332 358 369 406 648 887 782 569 701 737 813 973 1065 1154 1160 1126 1080 1183 1291 1419 1440 1676 1731 1938 2694 1673 1141 2931 1423 397 528
139 218 167 75 43 30 73 52 57 73 75 99 238 323 311 336 188 206 237 267 170 305 464 665 428 492 465 578 721 850 1006 890 701 907 1058 978 927 878 830 903 1017 1086 1147 1082 1131 1689 1213 499 200
294 347 92 76 49 58 54 88 74 77 114 151 215 257 246 277 181 186 251 187 170 222 374 483 333 268 274 623 554 772 894 1035 518 502 593 712 727 635 1062 1102 1036 926 650 618 1047 1205 380 161 276
257 195 126 100 60 34 64 94 96 110 139 160 183 205 204 233 175 176 225 208 261 171 209 302 262 172 177 442 491 271 547 849 294 269 274 488 597 824 578 934 976 782 707 701 790 303 216 151 161
126 65 58 68 67 39 58 117 124 117 138 155 151 155 167 175 138 172 205 204 265 141 106 181 168 191 242 437 499 530 338 452 353 280 254 102 423 772 762 650 525 500 629 623 408 295 231 256 415
45 23 35 62 47 40 27 60 101 84 111 111 110 100 105 112 128 186 169 184 243 167 84 172 141 246 486 398 402 443 410 304 165 391 598 258 296 630 520 397 586 465 730 823 844 665 509 404 409
35 21 18 98 149 30 81 1 3 0 44 82 76 65 77 105 124 180 210 195 199 264 158 237 292 326 339 219 228 338 573 806 747 267 360 777 525 855 331 212 703 594 711 750 808 705 554 564 492
40 11 30 16 136 29 40 0 0 0 5 0 16 53 51 70 102 131 136 178 244 256 297 36 123 322 298 115 291 818 619 308 601 448 532 883 830 663 361 685 886 649 766 818 694 797 777 807 688
70 79 181 179 301 54 50 32 23 3 0 0 0 0 0 0 12 48 188 147 173 276 278 107 37 598 269 387 640 779 535 678 627 699 634 725 862 719 561 777 1036 996 831 753 692 786 815 951 748
90 190 184 242 353 245 82 72 39 15 17 0 0 0 0 0 0 3 12 105 181 234 237 80 39 454 438 294 651 706 638 716 537 684 623 674 733 689 877 890 982 1016 1171 1085 864 1070 1042 1154 1106
83 165 145 104 457 307 241 134 92 56 36 18 3 0 0 0 5 13 11 115 164 211 253 204 324 414 392 261 590 726 735 831 707 622 631 516 413 416 486 504 518 460 766 793 793 985 990 1022 967
50 87 177 351 53 53 226 128 41 31 33 58 34 10 0 5 17 24 33 68 180 225 287 327 420 431 265 319 556 699 757 634 642 522 418 356 667 386 329 360 376 291 347 326 419 596 618 766 770
102 88 342 274 92 49 82 177 76 46 34 36 92 59 15 20 67 73 64 69 169 332 321 354 221 244 370 233 342 587 790 592 488 514 396 309 396 404 294 233 175 128 72 61 123 212 263 217 223
286 414 420 291 174 111 113 139 94 87 73 61 44 86 53 34 71 123 152 191 215 287 408 355 291 315 392 399 480 517 596 626 508 336 224 179 132 94 89 94 61 55 35 34 7 23 51 42 19
406 384 198 170 273 210 34 56 117 51 85 93 91 101 74 68 104 190 241 311 371 377 465 470 430 506 402 415 549 719 737 589 456 248 196 158 187 173 134 66 54 14 19 53 74 36 39 13 0
399 181 17 1 14 0 6 18 51 123 381 550 208 126 145 136 134 171 223 364 543 619 544 549 564 583 444 556 585 606 700 660 539 338 192 120 136 104 71 7 0 0 0 0 0 0 1 2 0
266 244 21 0 0 0 0 0 4 201 286 361 424 456 505 250 227 235 223 379 502 580 693 542 548 538 609 718 633 573 645 565 340 164 126 130 109 104 48 0 0 0 0 0 0 0 0 0 0
0 0 0 0 0 0 0 0 48 297 307 577 385 351 348 395 397 355 354 475 523 521 570 672 671 601 567 477 447 330 447 250 102 102 80 62 95 94 48 37 8 0 0 0 0 0 0 0 0
0 0 0 0 0 0 0 0 740 833 606 457 375 453 718 504 523 481 520 560 561 477 499 465 421 346 183 295 97 24 111 62 100 76 67 80 32 84 34 37 67 36 21 0 4 0 0 0 0
0 0 0 0 0 0 0 0 476 500 808 637 894 990 669 757 787 677 589 540 353 215 188 114 11 0 87 13 92 73 178 190 138 119 139 171 101 0 5 19 37 0 0 0 0 0 0 0 0

GFSSGP_con_mucape_309.txt.gz
CAPE
694 596 717 1477 211 144 56 39 0 0 0 0 0 55 106 181 0 0 45 302 566 860 1403 1417 1905 2002 2011 2016 1964 2184 2067 2201 2211 2157 2148 2152 2130 2170 2043 2099 2155 1950 1997 1713 1797 1771 1611 1540 1553
569 1080 1136 519 121 143 120 5 4 23 87 44 241 355 409 191 59 75 214 620 739 1169 1540 1735 1975 2098 1770 1926 2111 2251 2093 2287 2280 2210 2257 2198 2116 2002 1913 1775 1829 1638 1599 1667 1464 1341 1460 1448 1654
1524 1654 1058 321 65 104 149 74 210 75 83 221 306 374 430 35 37 135 446 701 1198 1407 1528 1699 1918 1940 1828 1752 1949 2066 2176 2180 2230 2284 2109 1960 2166 2123 2102 1816 1633 1509 1581 1557 1412 1278 1227 1252 1191
235 237 719 163 68 47 130 268 145 130 103 156 333 255 138 99 202 563 587 763 1142 1414 1659 1766 1667 1743 1882 1791 1291 2081 2272 2066 2102 2145 2112 2025 2122 1871 1416 1276 1092 993 1001 1061 1184 1217 1148 1019 1252
861 807 265 84 103 71 164 189 90 39 137 218 257 135 9 712 681 532 567 732 1023 1279 1488 1425 1870 1594 1056 1674 1362 799 1926 2048 1867 1998 2032 2154 1756 1509 1330 1068 918 1035 1222 1173 994 902 1322 1346 1430
168 477 75 127 80 88 54 8 39 132 172 164 95 2 364 650 386 488 466 727 884 1082 1221 1491 1760 1336 1193 1586 2014 939 1170 1671 1618 1924 2003 1820 1643 1388 1166 945 783 837 1097 1213 1172 1131 1243 1319 1421
49 217 51 127 79 51 22 14 62 99 91 119 8 54 373 327 393 479 610 1001 929 1348 1332 1592 595 970 1498 1987 2167 1224 1152 1345 1556 1620 1665 1570 1393 1226 1114 1043 825 801 770 875 1033 1090 1072 1015 1051
296 536 71 131 133 76 2 53 35 40 56 83 50 65 197 272 426 548 736 822 1122 1228 1182 1036 1110 1708 1717 1011 1432 1775 1415 1262 1436 1477 1456 1405 1265 1210 1113 1079 1250 1003 813 772 821 854 1211 1508 1440
78 140 145 108 180 52 18 26 76 53 50 135 161 20 94 395 517 414 562 622 1010 1066 820 587 934 1407 1418 1072 993 1175 1254 1314 1386 1395 1450 1488 960 1084 1020 847 1165 1357 1208 891 950 1233 1966 962 1049
667 386 71 108 134 63 40 39 60 15 113 190 180 191 360 580 606 261 302 352 599 478 487 687 618 640 830 843 1395 1606 1413 1312 1493 1628 1985 1801 1937 1933 1324 1245 1568 1749 1578 1301 1905 1836 2511 1015 747
729 554 374 60 68 34 25 29 19 43 69 177 116 281 467 511 418 136 127 162 273 292 325 548 629 690 855 1097 1511 1620 1576 1684 1922 2131 2204 2086 2114 2289 2237 2743 2470 2454 2294 2231 1212 2439 2248 1069 932
335 216 336 143 68 40 27 12 19 0 30 95 102 359 454 432 300 74 65 126 191 223 62 170 434 700 843 745 1099 1239 1452 1452 905 1479 1947 1707 1700 2155 2114 2029 2148 2325 2088 2170 1517 1896 2142 1671 632
326 419 162 100 48 43 26 1 0 105 95 182 324 408 366 226 100 30 15 29 76 59 62 160 362 637 769 1129 670 1071 1390 1665 1125 696 699 757 1405 1588 1975 2015 1930 1897 714 686 1501 2247 1549 548 608
290 198 88 90 89 79 37 28 61 142 136 250 362 348 343 247 167 81 91 17 78 48 6 132 333 437 606 1029 1217 881 919 1374 849 298 375 424 910 1955 1700 2336 2146 1825 1680 1679 1698 1184 712 648 496
149 212 160 95 93 56 53 56 17 232 134 256 256 291 298 351 265 236 43 51 58 56 0 80 244 296 516 844 1199 1256 936 781 967 407 1277 255 922 1753 2067 1598 1467 1400 1729 1576 1072 686 736 666 653
114 80 167 136 100 51 55 227 50 246 185 186 226 321 364 353 331 328 285 312 307 56 106 120 10 100 359 738 1226 1124 1181 890 722 210 753 1523 790 1413 1740 1351 1517 1319 1559 1265 803 983 1247 1431 1476
281 231 201 155 167 88 97 119 0 224 210 234 210 215 299 342 362 402 383 396 351 497 364 347 316 201 516 1123 905 1022 1146 1066 1235 1166 606 1570 854 1528 1303 1019 1558 1730 1624 1551 1139 1542 1810 1693 1570
184 165 116 203 195 106 121 108 4 147 169 216 222 237 233 310 370 408 435 422 455 597 634 494 508 636 1016 990 628 954 1349 1218 1216 1233 1092 1575 1699 1549 1321 1310 1795 1486 1545 1637 1355 2080 1843 1822 1785
31 148 129 195 340 76 90 79 20 0 41 76 187 254 287 301 330 391 452 467 535 644 769 780 487 743 1008 1028 967 1499 1421 1216 1545 1388 1360 1438 1626 1649 1630 1266 1964 1795 1844 1991 1905 1749 1900 1613 1501
82 126 108 431 589 320 207 169 112 20 17 9 16 32 76 129 153 107 381 473 577 656 816 984 964 740 1304 1177 1414 1538 1579 1684 1489 1550 1629 1289 1291 1499 1647 1778 1743 1619 2224 2169 1685 2268 1918 1356 1637
94 99 179 235 482 437 307 283 242 80 53 22 12 1 0 0 1 9 58 329 584 696 827 887 1214 877 1371 1271 1329 1596 1597 1665 1564 1638 1387 1182 1079 966 898 592 787 941 1222 1154 1412 1566 1894 1664 1891
125 79 183 293 200 249 240 288 375 188 170 97 61 28 5 1 4 5 62 208 412 599 781 933 1147 1208 1103 1540 1312 1699 1326 2939 2622 2265 1195 1175 1228 838 501 584 964 1134 739 779 804 876 1223 1572 978
256 157 446 294 333 189 246 282 554 86 281 236 158 155 115 98 63 44 66 224 438 579 769 881 1169 1284 1189 1427 1395 1660 1950 2802 1985 1237 796 980 661 333 288 240 186 134 130 105 150 68 111 158 249
477 539 453 403 493 481 264 264 345 322 224 143 264 267 293 197 282 315 374 406 565 699 872 928 1094 1607 1308 1428 1463 1852 2212 2099 1251 681 739 277 120 110 67 55 56 53 43 35 23 30 8 12 1
634 615 233 370 607 285 99 330 394 296 311 660 791 282 295 348 346 528 619 698 717 843 1060 1079 1245 1394 1458 1523 1535 1607 1695 1577 1078 796 235 107 95 68 72 85 48 24 0 1 11 6 9 9 11
581 220 23 59 71 6 163 319 376 511 670 668 719 635 258 296 265 519 634 849 885 982 1085 1239 1320 1392 1146 1108 577 734 680 535 341 276 177 92 80 31 76 71 52 0 0 0 0 0 0 0 0
244 429 24 28 0 0 0 153 256 587 650 587 349 295 325 376 446 496 614 836 1039 1036 1122 746 482 444 405 434 473 352 319 302 216 205 159 82 80 86 60 77 66 0 0 0 0 0 0 0 0
70 31 8 6 0 0 0 2 2 965 888 450 384 399 372 333 275 306 302 466 516 528 555 548 437 326 408 297 202 1 183 124 81 31 80 66 74 67 71 72 29 25 4 0 0 1 0 0 0
0 0 0 0 0 0 0 0 710 1287 1116 726 545 550 595 543 423 400 359 489 553 562 504 320 449 319 40 10 0 10 55 54 41 28 96 124 122 123 110 48 18 19 22 55 4 0 0 0 0
0 0 0 0 0 0 0 0 943 953 792 836 725 785 1008 749 678 666 569 630 678 603 464 357 202 53 7 6 0 5 124 90 64 99 87 80 101 108 140 39 0 2 23 15 0 0 0 0 0

GFSSGP_con_mucape_312.txt.gz
CAPE
416 778 943 2257 1154 308 327 165 123 51 54 11 50 503 449 219 0 0 0 13 405 876 1318 1509 1629 1733 1758 1961 1998 2046 2157 2227 2155 2161 2233 1899 2077 2110 2124 1954 2022 1995 1854 1920 1719 1651 1636 1729 1716
500 1431 1954 1325 557 358 241 129 178 372 116 187 525 269 563 340 0 0 116 545 981 1090 1281 1344 1670 1967 1969 2005 2008 2106 2163 2183 2201 2047 2128 2258 2070 1979 1938 1885 1776 1876 1797 1603 1625 1635 1726 1920 1903
1729 1734 1840 443 211 334 381 244 592 332 202 536 485 671 765 1 0 114 494 893 1086 1049 1184 1587 1808 1790 1674 1878 1958 1992 2151 2155 1977 2100 2051 2091 2014 2015 1960 1792 1712 1727 1590 1507 1477 1433 1460 1467 1328
956 1066 1251 560 292 318 118 408 390 388 418 519 662 320 10 0 118 495 736 774 802 964 1392 1576 1735 1712 1774 1916 2003 1895 1859 2006 1919 2044 2119 1995 1935 1483 1334 1182 1108 1088 1259 1443 1447 1432 1203 1162 1493
1507 1250 395 338 270 387 541 524 472 510 465 581 656 113 15 376 486 574 531 542 753 995 1436 1632 1770 1539 1386 1245 963 1851 2051 1875 1972 2063 2248 1919 1528 1358 1124 978 1039 1180 1157 1021 1011 1128 1426 1524 1455
813 845 390 411 335 386 428 282 257 350 411 466 366 5 396 432 475 362 359 539 586 854 975 1533 1417 1058 1611 1908 1011 1472 1784 1716 2080 2191 1842 1640 1431 1194 969 814 842 1052 1249 1238 1113 1270 1343 1353 1371
703 527 367 228 315 324 235 200 273 304 333 282 47 113 456 390 335 279 440 554 623 786 886 1163 165 1054 1718 2179 1263 1104 1475 1584 1687 1723 1616 1468 1273 1065 940 802 750 754 944 1157 1144 1212 1262 1075 969
846 704 316 244 353 316 208 214 149 180 219 99 49 248 320 309 310 342 439 591 725 505 299 173 595 1632 1512 1682 1672 1563 1245 1425 1480 1437 1361 1236 1093 1006 847 925 967 760 690 735 759 760 879 1391 1314
600 377 366 330 325 323 183 242 179 132 142 97 127 122 126 233 275 317 448 536 457 199 154 123 894 1214 984 718 1091 1193 1179 1244 1246 1284 1278 1277 976 1214 1112 637 1030 1159 942 799 851 991 1681 1672 1281
1155 188 250 275 327 380 244 276 153 132 161 130 149 83 97 213 258 243 258 258 39 63 91 211 169 161 283 261 693 588 485 563 893 1437 1901 1823 1799 1831 1573 1166 1283 1576 1502 1070 1499 1832 2398 2266 1012
782 381 488 208 261 289 224 219 131 117 150 185 169 139 144 202 202 90 66 9 1 21 1 15 31 169 236 449 744 908 1088 1336 2050 2766 2925 2703 2622 2626 2375 2496 2451 2677 2478 2368 2116 2258 2106 1434 1146
437 375 385 272 243 243 204 170 74 71 123 199 216 159 156 163 86 11 14 0 0 0 0 0 107 613 657 997 959 1072 1213 1749 1671 2388 2728 2455 2368 2659 2497 1874 2153 2599 2158 2645 2085 1887 2605 1942 996
533 393 343 260 210 236 165 83 85 274 109 75 105 184 151 95 26 0 4 0 0 0 0 5 475 1155 1396 1656 1463 1506 1425 1727 1632 1686 1991 1822 2084 2418 1971 1859 1866 2018 1706 1626 1842 1976 1619 1011 637
493 336 292 248 251 208 210 146 307 305 148 102 209 229 162 64 5 0 0 0 0 0 0 146 641 1437 1387 1458 1691 1504 1559 1781 1363 1021 976 1146 1885 2629 2166 2139 1869 1789 1979 2028 1896 1718 996 1072 1288
352 352 407 393 353 253 190 202 337 418 335 357 328 335 214 20 0 0 0 0 0 0 0 382 627 689 1101 1547 1626 1230 1216 1097 1165 888 1358 847 1778 2457 3107 1636 1522 1441 1924 2487 1999 1849 1651 1397 1235
393 294 249 417 349 219 199 380 418 504 399 393 311 317 375 168 73 12 0 4 0 0 0 202 8 206 687 1016 1328 994 1001 1146 878 662 804 1594 1514 1981 2270 1481 1427 1708 1568 1419 1308 1177 803 662 389
335 224 204 330 331 331 290 456 431 625 467 419 418 398 435 438 409 211 133 80 7 2 11 286 309 319 458 1010 1409 1435 1215 1330 806 933 804 1395 1026 1265 2129 1207 1157 2291 1527 1397 1296 949 1396 786 465
316 284 248 291 355 304 357 348 311 625 568 572 338 272 364 420 460 557 539 440 245 91 41 245 547 766 701 1133 1831 1319 942 737 785 1044 918 1302 1399 1679 2258 1011 1615 2043 1153 1209 1511 2293 1459 1407 1027
168 275 279 286 501 283 332 349 378 516 658 572 373 313 283 336 460 554 667 641 631 574 599 226 504 754 940 1370 1286 921 676 465 545 1210 1796 1922 2115 2096 2198 1532 1431 2121 1898 1900 2452 2112 1648 1345 1285
240 342 345 485 613 483 449 504 416 368 602 480 428 255 305 280 416 585 770 821 826 892 993 1049 949 854 1350 1286 1409 1063 970 815 853 1452 2279 2222 2225 2435 2423 2600 1893 2181 2758 1722 2063 1802 1591 1137 1309
305 301 273 356 770 749 631 612 519 507 429 451 370 336 218 182 392 593 726 888 863 1015 1197 1341 1893 1808 1651 1644 1585 1888 2008 1931 1614 1846 1965 2136 2135 2027 1903 1684 1528 2043 2047 2132 2283 2216 1880 971 1409
340 232 253 291 593 606 529 537 868 650 650 558 477 408 294 170 257 452 602 654 899 941 1056 1428 1858 2064 2057 2071 2171 2676 1494 1397 777 1374 1059 2170 1997 1595 1404 1534 1814 1896 1581 1801 2140 1388 2283 2099 1723
456 452 619 641 598 544 758 533 687 700 638 671 597 582 394 306 190 230 361 550 748 730 856 1176 1722 2174 1909 1822 2083 2048 3037 1614 1310 1390 1863 1860 1111 882 476 606 769 872 827 853 801 666 815 559 682
446 626 692 754 541 522 478 387 280 347 584 582 691 558 593 510 396 328 289 439 669 850 863 1040 1665 2402 2428 2107 2150 2942 2926 2315 1559 1871 2027 831 372 127 55 55 49 67 45 44 14 24 26 21 0
580 535 511 520 673 427 716 354 378 218 491 987 1124 1074 921 752 778 721 711 729 910 1080 1183 1236 1702 2228 2164 1801 1411 1451 1805 1739 2034 2296 1257 420 217 53 28 32 7 36 37 14 0 0 0 0 0
671 458 272 308 416 345 610 167 277 753 1135 1165 888 727 1093 1005 926 865 936 1092 1227 1224 1305 1783 1452 1107 1017 771 506 334 455 700 2377 1246 463 291 197 90 44 20 25 39 50 4 0 0 0 0 0
53 543 346 206 372 192 103 47 97 271 802 1071 943 652 717 775 1346 1079 1073 1106 1394 1538 1256 1096 734 596 422 438 263 296 272 208 308 189 188 101 95 91 19 22 54 70 64 0 0 0 0 0 0
0 49 118 146 187 223 194 51 36 182 760 1324 1026 577 417 454 595 751 965 1011 1146 1159 980 626 330 278 168 129 123 1 28 0 0 0 3 16 80 77 107 47 106 70 20 18 21 17 13 3 0
0 0 0 0 0 4 4 11 578 722 1552 1537 1164 534 534 538 612 415 468 617 701 699 609 509 268 155 172 61 1 0 3 5 1 0 2 7 3 102 121 100 132 100 21 21 27 6 13 2 0
0 0 0 0 0 0 0 0 1357 1682 1690 1413 989 858 884 674 571 689 633 686 741 768 664 641 356 322 143 58 0 15 9 0 2 7 70 68 160 127 98 122 157 116 94 3 7 0 0 0 0

GFSSGP_con_mucape_315.txt.gz
CAPE
463 971 1636 2385 2060 1201 292 282 309 302 303 315 389 355 275 129 55 145 21 133 570 1007 1039 1483 1652 1869 1989 2112 2148 2139 2097 1917 1995 2022 1833 2074 2050 2175 2003 2156 2007 1955 1667 1649 1593 1530 1725 1746 1735
739 1611 2387 2658 1081 241 369 268 632 245 226 447 215 650 677 11 0 0 207 629 762 835 1142 1360 1632 1872 1925 2050 1967 1973 1944 2022 1989 1975 2013 1969 1852 2026 2039 2041 2061 1789 1672 1591 1608 1885 1994 1933 1982
1705 2060 2803 609 651 222 157 462 571 242 359 338 808 795 221 1 14 200 703 854 800 816 1177 1716 1698 1642 1852 1928 1926 1944 1913 2020 2084 2101 2125 2021 2042 2070 2044 1966 1684 1644 1638 1714 1700 1699 1724 1561 1465
1802 1825 2170 1233 287 475 573 515 606 629 685 727 666 11 0 53 624 763 886 755 587 1331 1340 1718 1722 1774 1767 1849 1869 1957 2094 2034 2141 2136 1946 2112 1643 1425 1304 1201 1327 1568 1622 1591 1527 1495 1274 1275 1628
1815 1992 700 472 534 363 527 621 532 509 722 762 534 7 64 573 783 810 653 463 606 1073 1113 1622 1800 1745 1175 1452 1951 2175 1945 2012 2068 2181 2217 1651 1345 1194 1035 1035 1117 1131 1166 1257 1282 1215 1378 1514 1347
1512 1440 671 361 387 520 559 537 510 588 656 695 173 32 615 677 629 421 359 446 571 946 1192 1225 1182 1572 1880 1133 1736 2010 1932 2089 2237 2044 1580 1380 1188 1022 859 871 1028 1174 1162 1152 1096 1378 1373 1292 1248
1053 877 461 277 355 442 469 390 493 556 472 458 34 459 631 557 263 299 412 490 544 496 1017 798 297 1600 1857 1790 929 1558 1572 1852 1888 1584 1411 1198 990 872 747 700 739 910 1123 1170 1144 1139 1243 1101 957
1608 1231 284 249 268 391 432 423 245 444 449 131 141 551 621 354 235 347 418 409 502 220 434 110 873 1206 1577 738 1067 1254 1354 1462 1383 1253 1152 1027 891 756 713 750 730 653 684 790 833 844 809 1208 1413
884 1011 449 365 282 485 419 436 332 238 167 119 220 378 315 201 205 300 407 382 236 144 166 212 1195 1189 1013 647 1194 1142 1197 1200 1104 1068 1084 1144 1015 1197 1113 1306 831 869 769 729 803 898 1315 2218 2156
843 176 181 368 301 478 403 431 175 217 145 147 156 254 202 155 194 291 270 117 3 24 77 268 396 284 324 64 651 271 229 578 850 1039 2086 2330 1882 1919 1277 882 1169 1487 1439 1323 1225 1701 2445 3033 1958
271 373 172 306 253 281 322 416 156 163 298 147 179 199 142 122 175 170 144 1 0 0 16 109 15 93 150 189 250 253 558 1066 2026 3256 2970 2842 2600 2208 2161 2352 2041 2712 2390 2648 2164 2507 2653 1521 1275
467 104 143 186 180 207 276 77 127 217 265 212 175 142 103 104 88 47 25 0 0 0 0 0 51 149 157 274 307 391 570 1784 2013 2917 3097 2703 3140 2112 2323 1882 1799 2774 2106 2071 1932 1833 2538 1807 1116
140 88 131 174 151 121 152 130 174 321 130 245 204 117 82 77 23 5 5 0 0 0 0 1 200 499 493 670 1002 684 980 1238 1699 2162 2462 2157 1806 2106 1829 1687 1755 1602 1596 1480 1705 1371 1176 875 812
83 201 125 229 228 218 216 389 462 257 150 161 152 160 97 50 6 3 2 0 0 0 0 15 299 676 722 1174 1042 887 890 1749 1449 1198 1728 1938 2292 2673 1653 1683 1391 1223 1247 1601 1805 2099 1586 1325 1248
90 179 283 271 265 224 254 216 473 440 224 255 218 241 157 103 8 2 1 0 0 0 0 2 205 416 957 1351 1246 1040 863 808 965 1011 1709 1473 2238 2419 2996 1136 1084 947 1516 2326 2004 1592 1389 1255 983
149 78 104 200 231 159 258 221 587 530 504 423 338 308 263 125 4 2 1 1 0 0 0 95 11 41 425 780 787 514 566 562 554 533 762 1579 1603 1694 2218 846 703 2259 1237 919 1005 874 760 561 523
256 38 109 192 219 268 210 464 734 597 592 497 400 404 343 262 114 18 4 3 0 0 0 131 0 11 186 968 641 604 690 920 584 348 361 1871 1369 963 1731 882 801 2154 1292 767 792 659 1116 800 649
234 103 106 198 140 138 264 177 545 773 455 403 332 405 345 340 314 211 117 89 15 0 0 173 191 204 302 764 1024 674 279 411 320 258 330 1256 974 1298 1397 741 808 1308 1008 625 2068 2704 1279 1275 648
352 191 149 226 295 269 317 398 462 795 716 436 340 320 341 289 386 417 426 477 411 99 78 240 497 1929 1018 807 481 369 360 208 132 199 382 1402 1308 1299 1770 1280 724 1122 1471 2282 1962 2054 2754 1555 1202
260 227 279 479 368 486 377 540 464 563 793 721 569 389 287 275 409 545 616 664 655 616 736 405 609 1401 1385 925 887 735 421 271 131 251 3148 1965 2152 2221 2333 2418 1882 2229 2541 1944 2491 2199 1664 1370 1310
253 301 276 165 813 772 743 799 652 595 617 683 614 528 393 275 314 528 730 734 826 938 1078 1241 1794 2139 2282 2257 1348 1329 1295 1438 1156 691 1223 1549 2230 2353 2371 2403 2319 2375 2765 3493 2098 1632 1439 1235 876
77 218 110 314 362 518 1290 573 463 427 541 621 698 646 505 451 347 497 645 910 998 1078 1113 1575 2283 2599 2385 2997 2294 3378 2018 1251 761 796 584 2374 1966 1742 1742 1966 2089 2071 2551 2054 2239 2039 1560 955 777
165 238 331 293 286 338 609 252 404 220 383 570 680 723 655 502 412 433 608 836 923 898 974 1430 3109 3095 2781 2882 3259 2336 2915 1961 2155 2178 2610 2335 1978 1339 1008 1182 1031 1065 921 1003 670 677 740 1192 725
182 396 431 380 303 295 427 619 170 46 334 225 480 627 798 734 565 437 419 631 744 763 982 1173 3359 4392 3269 2812 2509 2760 2364 2005 1796 1726 2598 1388 1127 536 220 84 111 69 54 22 24 26 53 44 26
467 464 499 416 360 488 228 527 317 36 186 453 665 672 818 915 874 687 513 489 608 741 936 1038 3160 3172 1834 1362 1208 923 606 546 825 570 821 692 606 297 199 64 23 0 16 7 8 16 13 11 11
295 603 430 504 349 264 176 62 617 463 628 1118 1128 1001 1036 1156 1145 1040 742 597 637 805 1179 1010 1220 1206 1040 913 629 387 314 283 274 229 235 12 20 131 143 74 46 18 13 19 4 18 3 0 0
23 252 188 272 215 265 188 383 190 230 448 917 1233 1095 1305 1559 2119 1098 1020 1229 1446 1963 1420 1167 1049 761 552 416 266 201 170 132 118 54 56 44 3 27 75 38 41 15 24 0 0 6 18 1 1
0 0 6 249 241 169 153 205 187 133 322 1353 1508 1344 1241 1373 1607 1814 1998 2165 1705 1358 1059 893 761 668 424 240 171 0 9 2 1 0 0 0 0 0 0 0 7 20 19 6 9 5 8 3 8
0 0 0 0 0 34 16 107 233 223 545 1730 1651 1151 862 819 698 994 1035 1176 1307 1172 1020 820 548 387 300 304 269 24 12 8 4 0 0 0 2 0 1 11 12 1 56 97 28 8 26 5 2
0 0 0 1 7 23 24 63 1017 1479 1807 1897 1218 772 642 651 605 685 654 739 769 939 907 946 613 324 244 72 39 34 17 30 0 0 0 0 1 10 81 49 69 55 67 144 139 83 5 1 0